Wind_Speed
13 13 12 12 12 11 11 10 9 8 7 7 7 7 8 8 8 8 8 9 9 9 10 10 10 10 10 10 10 11 11 10 10 10 9 9 8 8 8 7 7 7 6
14 13 13 12 11 11 10 9 9 8 7 7 7 7 7 7 7 8 8 8 9 9 9 10 10 10 10 10 11 11 10 10 10 10 9 9 9 8 8 7 7 7 7
14 13 13 12 12 11 10 9 9 8 8 8 7 8 8 8 8 8 8 9 10 10 9 10 10 10 10 10 10 10 10 9 10 9 9 9 9 9 8 8 7 7 6
14 14 13 13 12 11 10 9 9 8 8 8 8 9 9 8 8 8 8 8 9 9 9 9 10 10 9 10 10 10 9 9 9 9 9 9 9 8 8 8 8 7 7
15 14 13 13 12 11 10 9 9 9 8 8 9 8 8 9 9 8 8 7 8 9 9 9 9 9 9 9 10 10 9 8 8 8 8 8 8 8 8 8 8 8 7
15 15 14 13 12 12 11 10 9 9 8 8 8 7 8 9 8 8 8 7 8 8 8 9 8 8 9 9 9 9 8 8 7 7 7 7 7 7 8 7 7 7 7
15 15 15 14 13 12 11 10 10 9 9 8 8 8 8 9 8 8 8 7 7 8 8 8 8 8 8 9 8 8 8 7 7 7 6 7 7 7 8 8 7 7 7
16 16 15 15 14 12 11 10 10 9 9 9 9 8 8 8 8 8 8 7 7 8 8 8 8 8 8 8 8 7 7 7 6 6 6 6 7 6 7 7 6 6 6
16 16 16 15 15 13 12 12 11 10 10 9 9 8 8 8 8 7 7 7 7 8 8 8 8 8 8 7 7 8 7 7 7 6 6 6 6 6 6 6 6 6 5
17 17 17 16 15 14 13 12 12 11 10 10 8 8 8 8 7 7 7 7 7 8 8 8 8 8 8 7 7 8 8 7 7 7 6 6 5 5 5 5 5 4 4
17 17 17 16 15 14 14 12 12 12 11 10 8 7 7 7 7 7 7 7 6 7 7 7 8 8 8 7 7 7 7 6 6 6 5 5 5 4 4 3 3 3 3
17 17 17 16 16 15 15 13 13 12 12 10 9 8 8 7 7 6 6 6 6 7 7 7 7 7 7 7 6 6 6 5 5 5 4 4 4 3 3 2 1 2 2
17 17 17 16 15 15 14 14 13 12 11 10 9 8 6 7 6 6 6 6 6 6 5 5 6 6 6 6 6 5 5 4 4 4 3 3 3 2 2 1 1 1 1
16 16 16 15 14 14 13 14 13 12 11 10 9 8 7 6 6 5 5 5 5 4 4 4 5 5 5 6 5 4 4 3 2 2 2 2 2 2 1 1 1 1 1
16 15 15 15 14 13 13 13 12 11 10 9 9 8 8 6 6 5 5 4 4 4 4 4 4 3 4 4 3 3 2 2 1 1 1 1 1 1 1 0 0 0 1
16 16 16 16 15 13 12 12 11 10 10 9 8 8 7 6 5 5 5 4 3 3 2 3 3 2 2 2 1 1 1 1 1 1 1 1 0 1 1 2 2 2 3
15 16 15 15 15 14 12 11 11 10 10 9 9 8 7 6 5 4 4 3 2 2 1 2 2 2 1 1 0 0 1 1 2 2 3 2 2 3 3 2 3 4 4
15 15 15 15 15 14 13 11 10 10 9 9 9 8 7 6 6 4 4 3 2 1 1 1 1 1 1 2 2 2 2 2 2 3 3 4 3 4 3 4 3 4 5
15 14 14 15 14 14 13 11 10 9 9 8 8 7 6 6 6 5 4 3 3 1 1 1 0 1 2 2 2 3 3 3 4 4 4 4 4 4 4 5 5 5 6
15 14 13 14 14 14 12 11 9 8 8 7 7 6 5 4 5 4 3 3 3 2 1 0 1 1 2 2 2 3 4 4 4 5 5 6 6 5 6 6 6 6 6
14 14 13 13 13 12 12 11 10 8 7 7 6 6 6 4 4 3 3 2 2 2 1 1 1 2 2 3 3 4 5 5 5 5 6 6 7 7 7 7 7 7 7
13 13 13 12 12 12 12 11 10 9 8 7 7 6 6 5 4 3 2 2 2 2 1 1 2 3 3 3 4 5 5 6 6 7 7 8 8 9 9 9 8 9 9
12 12 12 12 12 12 12 12 11 10 9 8 7 7 6 5 5 4 3 2 2 2 3 3 4 4 4 4 5 5 6 6 7 8 8 9 9 10 10 9 9 10 11
10 11 11 11 11 11 11 12 11 11 11 9 8 7 6 5 5 4 4 3 3 3 4 4 4 5 6 6 6 6 6 7 7 8 9 10 10 10 10 10 10 10 11
10 10 10 10 10 11 11 11 12 12 11 10 9 8 7 6 5 5 4 4 4 4 5 6 6 6 7 7 6 6 7 7 8 8 9 10 10 11 11 11 11 12 12
9 9 9 9 10 10 11 11 11 11 12 11 10 8 8 7 7 6 5 5 5 6 6 6 6 7 8 7 7 7 8 8 9 10 11 11 11 11 11 11 12 12 12
Wind_Direction
69 70 69 70 72 75 78 81 83 86 88 87 89 95 103 108 113 116 113 113 112 113 113 114 115 115 110 106 105 106 105 106 107 108 109 108 105 103 102 100 101 104 108
65 68 70 70 72 76 80 82 82 83 84 85 92 97 105 110 113 117 116 112 111 111 116 119 117 111 109 108 106 105 105 105 107 108 109 108 104 102 101 98 96 94 95
63 66 68 70 72 72 76 83 81 81 84 87 93 99 105 109 111 118 117 116 114 114 115 111 110 110 109 109 107 106 104 101 105 107 107 105 102 100 96 94 96 93 95
62 64 66 67 69 70 74 78 79 81 86 92 95 99 104 105 107 113 118 117 115 112 110 109 110 110 111 110 109 108 104 101 104 107 105 102 100 100 98 97 96 92 93
63 63 64 65 67 69 72 75 77 80 87 93 96 97 101 103 105 107 112 113 109 107 106 110 113 113 112 112 109 107 103 100 104 105 102 101 101 100 99 100 96 95 94
63 63 64 65 67 69 70 73 74 79 84 91 95 98 103 105 106 109 108 109 106 104 105 109 110 109 110 111 109 106 101 100 103 101 103 106 104 101 99 101 100 95 97
64 64 64 64 66 68 72 75 75 81 86 92 95 99 103 104 106 109 111 110 108 109 107 104 102 105 108 109 109 108 105 101 97 98 103 108 108 101 98 98 99 96 97
64 63 64 64 64 66 68 73 76 80 86 91 97 98 100 104 105 108 112 113 114 115 109 103 101 104 104 106 107 107 103 100 100 100 101 107 107 100 99 97 96 94 95
63 63 65 65 65 66 65 67 75 82 88 91 96 100 101 103 104 106 109 112 112 110 104 102 102 100 102 105 105 104 100 100 101 105 107 110 108 105 105 105 101 101 105
64 65 65 64 64 65 66 67 73 79 85 90 92 95 101 103 104 106 107 106 105 108 104 106 105 98 100 103 108 107 100 99 101 101 105 109 108 105 106 110 106 108 113
63 65 63 62 62 64 65 66 71 77 82 85 87 90 97 102 105 108 107 106 105 108 108 110 108 103 104 104 111 110 102 97 97 98 100 106 107 101 101 113 115 117 119
61 60 58 59 61 63 63 64 67 72 74 76 80 87 95 101 108 107 106 109 109 113 110 111 110 107 106 105 109 111 104 99 95 93 92 94 98 97 93 111 143 144 136
60 58 56 55 58 60 62 63 64 65 68 71 72 74 88 103 108 106 108 110 114 121 120 119 116 112 112 108 107 107 102 101 93 87 81 80 85 87 90 93 147 171 175
61 58 56 55 57 61 61 61 62 64 66 67 71 72 87 98 97 99 120 118 113 123 129 119 116 115 115 111 106 103 104 103 91 75 70 59 64 69 69 62 51 146 172
58 57 55 53 57 59 58 60 61 64 69 71 73 71 74 79 94 106 114 113 121 121 126 123 117 120 108 108 109 102 103 123 140 111 98 34 45 35 5 335 216 207 205
53 54 54 52 52 53 53 57 61 61 62 66 70 68 67 73 79 91 93 95 125 128 136 142 137 123 128 115 108 111 124 164 188 203 239 255 308 310 289 267 258 261 245
49 49 50 50 50 52 52 54 60 61 60 62 65 64 62 64 68 74 83 96 110 109 112 164 155 147 184 225 248 267 234 250 264 259 252 259 257 271 271 266 261 262 261
49 47 46 45 46 50 52 54 60 61 59 59 61 63 58 55 61 72 75 72 81 83 104 124 170 196 238 258 269 265 266 275 290 281 276 268 268 269 270 278 276 277 268
49 46 44 44 45 48 50 54 56 58 56 55 55 55 50 47 49 47 55 54 50 59 111 124 206 233 265 263 254 257 272 273 280 282 279 273 278 277 277 282 280 281 274
44 41 40 41 44 47 47 48 51 55 52 48 43 39 40 41 38 39 40 42 36 18 5 7 240 238 253 269 265 259 269 272 273 280 277 276 276 277 278 279 281 281 282
43 40 39 39 41 42 43 42 44 43 38 35 31 30 32 32 34 23 13 356 360 2 344 272 248 266 268 267 277 279 274 272 272 277 277 281 281 279 275 275 274 275 277
37 37 36 37 37 37 39 37 37 33 29 24 24 22 25 26 26 10 349 339 332 334 325 304 297 293 294 288 280 278 274 272 272 280 279 278 281 283 277 271 272 273 272
33 33 34 33 31 31 31 31 30 27 24 20 19 16 14 12 10 9 353 336 333 327 325 316 307 307 301 288 283 280 278 273 269 275 278 280 280 283 278 277 278 277 275
25 27 28 28 25 24 24 23 24 24 23 17 12 10 8 6 3 356 350 346 326 307 311 310 308 307 300 292 288 281 282 279 275 276 276 282 283 286 285 284 283 284 279
16 18 20 21 18 18 18 19 22 21 20 18 11 5 359 354 349 345 336 334 324 315 313 307 306 305 301 296 291 284 283 282 280 279 279 285 288 290 292 290 288 287 282
8 8 10 13 12 12 12 13 14 15 16 14 9 2 354 347 343 338 332 328 320 315 312 310 306 301 301 296 287 283 282 284 284 281 283 284 284 287 289 289 287 286 286
Height
5884 5883 5882 5882 5881 5880 5880 5880 5880 5880 5880 5880 5880 5880 5880 5880 5880 5880 5880 5880 5880 5880 5880 5881 5881 5881 5881 5882 5882 5882 5883 5883 5883 5883 5884 5884 5884 5884 5884 5884 5884 5884 5884
5886 5885 5884 5884 5883 5882 5882 5882 5882 5881 5881 5881 5881 5881 5881 5881 5881 5881 5881 5881 5881 5881 5881 5882 5882 5883 5883 5883 5883 5884 5884 5884 5885 5885 5885 5885 5885 5885 5885 5885 5885 5885 5885
5888 5887 5886 5885 5885 5884 5884 5883 5883 5883 5883 5883 5883 5883 5883 5883 5883 5883 5883 5883 5883 5883 5883 5883 5884 5884 5884 5885 5885 5885 5886 5886 5886 5886 5886 5886 5886 5886 5886 5887 5887 5886 5886
5889 5889 5888 5887 5886 5886 5885 5885 5885 5885 5884 5884 5884 5884 5884 5884 5885 5885 5885 5885 5884 5884 5884 5885 5885 5885 5886 5886 5886 5887 5887 5887 5887 5887 5887 5887 5887 5888 5888 5888 5888 5888 5887
5891 5891 5890 5889 5888 5887 5887 5887 5886 5886 5886 5886 5886 5886 5886 5886 5886 5887 5886 5886 5886 5886 5886 5886 5886 5887 5887 5888 5888 5888 5888 5889 5889 5889 5889 5889 5889 5889 5889 5889 5889 5889 5889
5894 5893 5892 5891 5890 5889 5889 5888 5888 5887 5887 5887 5887 5887 5887 5888 5888 5888 5888 5888 5888 5888 5888 5888 5888 5888 5889 5889 5889 5890 5890 5890 5890 5890 5890 5890 5890 5890 5890 5890 5890 5890 5890
5896 5895 5894 5893 5892 5891 5890 5890 5889 5889 5889 5889 5889 5889 5889 5889 5889 5889 5889 5889 5889 5889 5890 5890 5890 5890 5890 5891 5891 5891 5891 5891 5891 5891 5891 5891 5891 5891 5891 5891 5891 5891 5891
5898 5897 5896 5895 5894 5893 5892 5891 5891 5890 5890 5890 5890 5890 5891 5891 5891 5891 5891 5891 5891 5891 5891 5891 5891 5892 5892 5892 5892 5892 5892 5892 5892 5892 5892 5892 5892 5892 5892 5892 5892 5892 5892
5900 5899 5898 5897 5896 5895 5894 5893 5892 5892 5892 5892 5892 5892 5892 5892 5892 5892 5892 5892 5892 5892 5893 5893 5893 5893 5893 5893 5894 5894 5893 5893 5893 5893 5893 5893 5893 5893 5893 5893 5893 5893 5893
5902 5901 5900 5899 5898 5897 5896 5895 5894 5893 5893 5893 5893 5893 5893 5893 5893 5893 5893 5893 5894 5894 5894 5894 5894 5894 5894 5894 5895 5895 5894 5894 5894 5894 5894 5894 5894 5894 5894 5894 5893 5893 5894
5905 5904 5902 5901 5900 5899 5898 5897 5896 5895 5895 5895 5894 5894 5894 5894 5894 5894 5894 5894 5894 5894 5895 5895 5895 5895 5895 5895 5896 5896 5895 5895 5895 5895 5895 5895 5894 5894 5894 5894 5894 5894 5894
5907 5906 5904 5903 5902 5901 5900 5899 5898 5897 5897 5896 5896 5895 5895 5895 5895 5896 5896 5896 5896 5896 5896 5896 5896 5897 5896 5897 5897 5897 5897 5896 5896 5896 5896 5895 5895 5895 5894 5894 5894 5894 5894
5910 5908 5907 5905 5904 5903 5902 5901 5900 5899 5899 5898 5898 5897 5896 5896 5896 5896 5897 5897 5897 5897 5897 5897 5897 5898 5897 5898 5898 5897 5897 5897 5897 5896 5896 5896 5895 5895 5895 5895 5894 5894 5894
5912 5911 5909 5908 5906 5905 5904 5903 5902 5901 5900 5900 5899 5898 5898 5898 5897 5897 5898 5898 5898 5897 5898 5898 5899 5898 5898 5898 5898 5898 5898 5897 5897 5897 5896 5896 5896 5895 5895 5895 5894 5894 5894
5914 5913 5911 5910 5909 5907 5906 5904 5904 5903 5902 5901 5900 5900 5899 5899 5898 5899 5899 5899 5898 5898 5899 5899 5899 5899 5899 5899 5899 5898 5898 5898 5898 5897 5897 5896 5896 5896 5895 5895 5894 5894 5893
5916 5914 5913 5911 5910 5908 5907 5906 5905 5904 5903 5902 5902 5901 5900 5900 5900 5899 5899 5899 5898 5899 5899 5899 5899 5899 5899 5899 5899 5899 5899 5898 5898 5897 5897 5896 5896 5896 5895 5895 5894 5894 5893
5918 5916 5915 5913 5911 5910 5909 5908 5907 5906 5905 5904 5903 5902 5902 5901 5901 5900 5900 5900 5900 5900 5900 5900 5900 5900 5900 5899 5899 5899 5898 5898 5897 5897 5896 5896 5896 5896 5895 5894 5894 5893 5893
5919 5918 5916 5915 5913 5911 5910 5909 5908 5907 5906 5905 5904 5903 5903 5902 5901 5901 5900 5900 5900 5900 5900 5900 5899 5899 5899 5899 5899 5898 5898 5897 5897 5896 5896 5895 5895 5894 5894 5893 5893 5892 5892
5921 5919 5918 5916 5915 5913 5911 5910 5909 5908 5908 5907 5906 5904 5903 5903 5902 5901 5901 5901 5900 5900 5900 5899 5899 5899 5898 5898 5898 5897 5897 5897 5896 5896 5895 5895 5894 5893 5893 5892 5892 5891 5890
5922 5921 5919 5918 5916 5915 5914 5912 5911 5910 5909 5908 5907 5905 5904 5903 5903 5902 5901 5901 5901 5900 5900 5899 5899 5898 5898 5898 5897 5897 5896 5896 5895 5895 5894 5893 5893 5892 5891 5891 5890 5890 5889
5924 5922 5920 5919 5918 5916 5915 5914 5912 5911 5910 5909 5907 5906 5904 5903 5903 5902 5901 5901 5900 5900 5899 5899 5898 5898 5897 5897 5896 5896 5895 5895 5894 5894 5893 5892 5892 5891 5890 5889 5888 5888 5887
5926 5924 5922 5921 5920 5918 5917 5915 5913 5912 5911 5909 5908 5906 5905 5904 5903 5902 5901 5900 5899 5899 5899 5898 5898 5897 5896 5896 5895 5895 5894 5894 5893 5892 5891 5891 5890 5889 5888 5887 5886 5886 5885
5927 5926 5924 5923 5921 5919 5918 5916 5914 5912 5911 5909 5908 5906 5905 5904 5902 5901 5900 5900 5899 5899 5898 5897 5897 5896 5895 5895 5894 5893 5893 5892 5892 5891 5890 5889 5888 5888 5886 5885 5884 5883 5882
5929 5927 5926 5924 5922 5921 5919 5917 5915 5913 5911 5909 5908 5906 5905 5904 5902 5901 5900 5899 5899 5898 5897 5896 5895 5895 5894 5893 5893 5892 5891 5890 5890 5889 5889 5887 5886 5885 5884 5883 5882 5880 5879
5929 5928 5926 5925 5923 5921 5920 5918 5916 5914 5912 5910 5908 5906 5904 5903 5901 5900 5898 5898 5898 5897 5896 5895 5894 5893 5892 5891 5891 5890 5889 5889 5888 5887 5886 5886 5884 5883 5882 5880 5879 5878 5877
5930 5928 5927 5925 5923 5922 5920 5918 5916 5914 5911 5909 5907 5905 5904 5902 5900 5899 5897 5897 5896 5895 5894 5893 5892 5891 5890 5889 5888 5888 5887 5886 5885 5885 5884 5883 5882 5881 5879 5878 5876 5875 5874